MST,Max TemperatureF,Mean TemperatureF,Min TemperatureF,Max Dew PointF,MeanDew PointF,Min DewpointF,Max Humidity, Mean Humidity, Min Humidity, Max Sea Level PressureIn, Mean Sea Level PressureIn, Min Sea Level PressureIn, Max VisibilityMiles, Mean VisibilityMiles, Min VisibilityMiles, Max Wind SpeedMPH, Mean Wind SpeedMPH, Max Gust SpeedMPH,PrecipitationIn, CloudCover, Events, WindDirDegrees
2012-11-1,64,49,34,40,35,31,92,68,43,29.90,29.84,29.76,10,10,10,36,6,43,0.00,1,,242
2012-11-2,57,42,27,38,32,26,92,64,35,30.20,30.08,29.94,10,10,10,30,8,36,0.00,2,,302
2012-11-3,61,42,22,32,26,21,96,60,23,30.24,30.15,30.08,10,10,10,6,1,9,0.00,0,,187
2012-11-4,55,46,36,41,34,27,85,68,50,30.32,30.21,30.04,10,10,10,24,6,30,T,7,Rain,305
2012-11-5,70,53,36,43,35,30,92,59,25,30.24,30.11,29.97,10,10,10,24,5,30,0.00,0,,322
2012-11-6,62,46,29,36,33,28,92,64,36,30.27,30.16,29.99,10,10,10,10,2,12,0.00,1,,179
2012-11-7,79,55,31,38,29,23,85,49,12,29.96,29.83,29.68,10,10,10,31,7,38,0.00,1,,285
2012-11-8,52,39,25,30,27,24,92,64,35,30.02,29.88,29.74,10,10,10,24,9,31,0.00,3,,56
2012-11-9,34,29,23,31,29,21,100,95,89,29.79,29.71,29.62,10,4,0,23,10,28,0.42,8,Fog-Snow,308
2012-11-10,26,14,2,21,12,-2,96,85,73,30.15,29.92,29.71,10,6,1,28,15,33,0.59,7,Snow,309
2012-11-11,24,11,-3,13,5,-5,91,74,56,30.31,30.21,29.94,10,10,10,30,9,36,0.00,3,,274
2012-11-12,29,16,3,18,9,-2,84,67,50,30.38,30.31,30.11,10,10,10,8,1,10,0.00,1,,238
2012-11-13,45,32,18,30,23,17,92,71,49,30.35,30.27,30.15,10,10,10,8,1,10,0.00,2,,194
2012-11-14,41,31,21,32,25,17,96,78,59,30.33,30.22,30.15,10,10,10,9,2,10,0.00,5,,265
2012-11-15,46,34,21,30,23,17,88,69,49,30.40,30.30,30.17,10,10,10,14,4,23,0.00,0,,206
2012-11-16,42,31,19,29,24,16,85,69,53,30.14,30.07,30.02,10,10,10,9,2,10,0.00,3,,189
2012-11-17,55,41,26,30,27,23,85,58,30,30.12,30.02,29.86,10,10,10,16,4,21,0.00,0,,170
2012-11-18,47,36,24,34,30,22,92,79,65,30.09,29.91,29.81,10,10,10,14,3,18,T,2,Rain,252
2012-11-19,53,39,24,35,29,24,100,77,54,30.15,30.09,30.04,10,10,10,12,4,17,0.00,1,,307
2012-11-20,64,46,27,37,31,24,92,61,30,30.04,29.94,29.81,10,10,10,28,6,35,0.00,0,,275
2012-11-21,67,51,34,37,32,29,82,53,24,29.95,29.77,29.62,10,10,10,39,8,46,0.00,1,,292
2012-11-22,44,30,16,32,21,12,84,57,29,30.60,30.26,29.95,10,9,1,38,11,45,0.01,3,Snow,299
2012-11-23,47,31,14,27,20,11,88,63,38,30.56,30.36,30.05,10,10,10,12,3,13,0.00,0,,310
2012-11-24,52,43,33,35,30,24,85,62,38,30.04,29.99,29.94,10,10,10,21,5,26,0.00,7,,303
2012-11-25,39,33,27,36,31,26,100,96,92,30.31,30.04,29.92,10,3,0,10,4,21,0.59,8,Fog-Rain-Snow,337
2012-11-26,27,15,3,27,11,0,100,91,81,30.46,30.26,30.09,10,4,0,12,2,12,0.02,3,Fog-Snow,262
2012-11-27,27,15,2,19,7,0,96,85,74,30.36,30.25,30.05,10,8,1,7,1,8,0.00,0,,256
2012-11-28,33,21,9,24,17,8,92,82,72,30.23,30.13,29.97,10,10,10,8,2,9,0.00,0,,195
2012-11-29,46,32,18,34,27,16,92,79,65,30.01,29.97,29.82,10,10,10,12,3,17,T,2,,204
2012-11-30,50,37,23,31,27,22,92,73,53,29.92,29.78,29.63,20,10,0,14,3,16,0.00,2,,52